DW2770 Cefalu IT current weather conditions

sailwx.info

Wind from 045

Air temperature 19.4° C
Dewpoint 16.5° C

Last reported at 2018-May-25 22:40 UTC.
Time now 2018-May-26 07:43 UTC

Location: N 38°02' E 014°02'.
View on Google Maps.

See reports from other nearby stations

  
Tides and Currents Weather Stations Pressure Air Temp Water Temp Dewpoint Dewpoint Depression Visibility Wind Speed Wind Dir Waves Ship Positions
date/time (UTC)wind fromknots sea level pressurealtimeterstation pressurevisibilityair tempwater tempwave heightnotes
2018-May-25 22:40 045 19.4
2018-May-25 22:30 068 19.4
2018-May-25 22:20 090 19.4
2018-May-25 22:10 068 18.9
2018-May-25 21:50 180 19.4
2018-May-25 21:00 068 19.4
2018-May-25 20:50 068 19.4
2018-May-25 20:40 068 18.9
2018-May-25 20:21 202 0 gusting 0 18.9
2018-May-25 20:10 271 18.9
2018-May-25 20:00 045 18.9
2018-May-25 19:30 270 19.4
2018-May-25 19:10 100 19.4
2018-May-25 19:00 090 0 gusting 1 19.4
2018-May-25 18:40 068 0 gusting 1 19.4
2018-May-25 18:30 068 1 gusting 1 20.0
2018-May-25 18:20 045 1 gusting 2 20.0
2018-May-25 18:10 068 20.0
2018-May-25 18:00 068 4 gusting 4 20.0
2018-May-25 17:50 068 0 gusting 2 20.6
2018-May-25 17:10 068 1 gusting 4 20.6
2018-May-25 17:00 045 2 gusting 4 20.6
2018-May-25 16:50 045 2 gusting 4 20.6
2018-May-25 16:30 045 2 gusting 4 21.1
2018-May-25 16:20 068 2 gusting 4 21.1
2018-May-25 16:00 022 2 gusting 4 21.1
2018-May-25 15:50 068 4 gusting 5 21.1
2018-May-25 15:40 044 5 gusting 6 21.1
2018-May-25 15:30 022 2 gusting 6 21.7
2018-May-25 15:20 068 1 gusting 4 21.7
2018-May-25 15:10 052 4 gusting 6 21.1
2018-May-25 15:00 068 3 gusting 4 21.7
2018-May-25 14:50 21.7
2018-May-25 14:40 104 1 gusting 6 21.1
2018-May-25 14:30 068 4 gusting 6 21.7
2018-May-25 14:00 045 4 gusting 6 21.7
2018-May-25 13:50 068 4 gusting 4 21.7
2018-May-25 13:30 045 4 gusting 7 21.7
2018-May-25 13:20 045 4 gusting 5 21.7
2018-May-25 13:10 065 4 gusting 5 21.7
2018-May-25 12:50 045 2 gusting 6 21.7
2018-May-25 12:30 045 1 gusting 4 21.7
2018-May-25 12:20 045 3 gusting 7 21.1
2018-May-25 12:00 045 6 gusting 8 21.1
2018-May-25 11:30 068 2 gusting 4 21.7
2018-May-25 11:20 112 2 gusting 6 21.1
2018-May-25 11:10 045 3 gusting 6 21.1
2018-May-25 11:00 068 2 gusting 10 21.1
2018-May-25 10:30 068 6 gusting 7 19.4
2018-May-25 10:20 045 7 gusting 7 19.4
2018-May-25 10:10 054 5 gusting 6 20.0
2018-May-25 10:00 045 4 gusting 7 19.4
2018-May-25 09:40 045 5 gusting 6 20.0
2018-May-25 09:30 045 4 gusting 6 20.0
2018-May-25 09:10 045 5 gusting 6 19.4
2018-May-25 09:00 043 2 gusting 5 19.4
2018-May-25 08:50 045 2 gusting 2 20.0
2018-May-25 08:40 068 1 gusting 5 19.4
2018-May-25 08:30 068 6 gusting 6 19.4
2018-May-25 08:10 104 0 gusting 5 19.4
2018-May-25 08:00 046 3 gusting 6 19.4
2018-May-24 22:40 045 17.2
2018-May-24 22:00 112 17.8
2018-May-24 21:50 072 17.8
2018-May-24 21:40 045 18.3
2018-May-24 21:20 068 18.3
2018-May-24 21:10 045 18.3
2018-May-24 21:00 18.3
2018-May-24 20:50 18.9
2018-May-24 20:40 112 18.9
2018-May-24 20:20 068 0 gusting 0 18.9
2018-May-24 20:10 068 0 gusting 0 18.9
2018-May-24 20:00 060 0 gusting 0 18.9
2018-May-24 19:50 068 0 gusting 1 18.9
2018-May-24 19:40 045 1 gusting 2 18.9
2018-May-24 19:30 055 1 gusting 1 18.9
2018-May-24 18:50 158 0 gusting 0 18.9
2018-May-24 18:40 338 18.9
2018-May-24 18:30 045 0 gusting 1 18.9
2018-May-24 18:20 045 1 gusting 1 18.9
2018-May-24 18:10 045 0 gusting 1 18.9
2018-May-24 18:00 059 1 gusting 1 19.4
2018-May-24 17:20 045 2 gusting 4 19.4
2018-May-24 17:10 068 2 gusting 2 20.6
2018-May-24 17:00 267 0 gusting 1 20.6
2018-May-24 16:40 068 20.0
2018-May-24 16:20 022 3 gusting 4 20.0
2018-May-24 16:10 045 1 gusting 4 20.0
2018-May-24 16:00 045 2 gusting 4 20.6
2018-May-24 15:50 045 2 gusting 4 20.0
2018-May-24 15:40 022 1 gusting 6 20.6
2018-May-24 15:30 045 2 gusting 6 20.6
2018-May-24 15:20 045 2 gusting 5 20.6
2018-May-24 15:10 20.6
2018-May-24 14:50 045 2 gusting 4 21.7
2018-May-24 14:40 068 0 gusting 5 21.7
2018-May-24 14:30 229 5 gusting 5 21.7
2018-May-24 14:20 292 1 gusting 2 21.7
2018-May-24 14:10 315 2 gusting 4 21.7
2018-May-24 14:00 202 2 gusting 5 21.7
2018-May-24 13:50 248 3 gusting 5 21.7
2018-May-24 13:40 202 4 gusting 5 21.7
2018-May-24 13:20 045 3 gusting 5 21.1
2018-May-24 13:10 045 2 gusting 4 20.6
2018-May-24 13:00 045 1 gusting 4 21.1
2018-May-24 12:50 090 1 gusting 4 21.1
2018-May-24 12:40 20.6
2018-May-24 12:30 068 0 gusting 5 21.1
2018-May-24 12:20 023 1 gusting 4 21.7
2018-May-24 12:00 311 2 gusting 6 21.1
2018-May-24 11:40 292 2 gusting 5 21.1
2018-May-24 11:30 248 4 gusting 4 20.6
2018-May-24 11:20 314 2 gusting 4 20.6
2018-May-24 11:10 315 5 gusting 7 20.0
2018-May-24 10:50 022 1 gusting 5 20.0
2018-May-24 10:20 251 2 gusting 6 20.0
2018-May-24 10:10 292 5 gusting 6 20.0
2018-May-24 09:50 315 4 gusting 5 20.0
2018-May-24 09:40 270 4 gusting 5 20.0
2018-May-24 09:20 270 5 gusting 5 20.0
2018-May-24 09:10 248 1 gusting 4 20.0
2018-May-24 08:50 292 4 gusting 7 19.4
2018-May-24 08:30 287 2 gusting 6 19.4
2018-May-24 08:10 248 2 gusting 4 19.4